owner,sensor,date,latitude,longitude,vertical_datum,wind_speed,wind_to_direction,wind_speed_of_gust,qcFlag 
LUMCON,ioos:station:LUMCON:102:1,2019-01-01T16:45:00Z,29.1870,-90.6093,0.0,5.2,18.0,5.4,'1111122,1111122,1111122' 
LUMCON,ioos:station:LUMCON:102:1,2019-01-01T17:15:00Z,29.1870,-90.6093,0.0,4.2,23.0,4.4,'1111122,1111122,1111122' 
LUMCON,ioos:station:LUMCON:102:1,2019-01-01T17:30:00Z,29.1870,-90.6093,0.0,5.1,8.0,5.6,'1111122,1111122,1111122' 
LUMCON,ioos:station:LUMCON:102:1,2019-01-01T19:45:00Z,29.1870,-90.6093,0.0,4.0,39.0,4.2,'1111122,1111122,1111122' 
LUMCON,ioos:station:LUMCON:102:1,2019-01-01T20:00:00Z,29.1870,-90.6093,0.0,4.1,26.0,4.3,'1111122,1111122,1111122' 
LUMCON,ioos:station:LUMCON:102:1,2019-01-02T14:45:00Z,29.1870,-90.6093,0.0,6.2,64.0,6.4,'1111122,1111122,1111122' 
LUMCON,ioos:station:LUMCON:102:1,2019-01-02T15:00:00Z,29.1870,-90.6093,0.0,6.0,64.0,6.1,'1111122,1111122,1111122' 
LUMCON,ioos:station:LUMCON:102:1,2019-01-02T15:15:00Z,29.1870,-90.6093,0.0,5.3,71.0,5.7,'1111122,1111122,1111122' 
LUMCON,ioos:station:LUMCON:102:1,2019-01-02T15:30:00Z,29.1870,-90.6093,0.0,5.1,76.0,5.5,'1111122,1111122,1111122' 
LUMCON,ioos:station:LUMCON:102:1,2019-01-02T15:45:00Z,29.1870,-90.6093,0.0,5.2,75.0,5.4,'1111122,1111122,1111122' 
LUMCON,ioos:station:LUMCON:102:1,2019-01-02T16:00:00Z,29.1870,-90.6093,0.0,5.1,76.0,5.3,'1111122,1111122,1111122' 
LUMCON,ioos:station:LUMCON:102:1,2019-01-02T16:15:00Z,29.1870,-90.6093,0.0,5.5,77.0,5.6,'1111122,1111122,1111122' 
LUMCON,ioos:station:LUMCON:102:1,2019-01-02T16:30:00Z,29.1870,-90.6093,0.0,5.7,77.0,5.9,'1111122,1111122,1111122' 
LUMCON,ioos:station:LUMCON:102:1,2019-01-02T16:45:00Z,29.1870,-90.6093,0.0,5.7,79.0,6.1,'1111122,1111122,1111122' 
LUMCON,ioos:station:LUMCON:102:1,2019-01-02T17:00:00Z,29.1870,-90.6093,0.0,6.0,73.0,6.3,'1111122,1111122,1111122' 
LUMCON,ioos:station:LUMCON:102:1,2019-01-02T17:15:00Z,29.1870,-90.6093,0.0,5.5,82.0,5.7,'1111122,1111122,1111122' 
LUMCON,ioos:station:LUMCON:102:1,2019-01-02T17:30:00Z,29.1870,-90.6093,0.0,5.3,89.0,5.5,'1111122,1111122,1111122' 
LUMCON,ioos:station:LUMCON:102:1,2019-01-02T17:45:00Z,29.1870,-90.6093,0.0,5.6,86.0,5.8,'1111122,1111122,1111122' 
LUMCON,ioos:station:LUMCON:102:1,2019-01-02T18:00:00Z,29.1870,-90.6093,0.0,4.0,81.0,4.2,'1111122,1111122,1111122' 
LUMCON,ioos:station:LUMCON:102:1,2019-01-02T18:15:00Z,29.1870,-90.6093,0.0,4.3,91.0,4.4,'1111122,1111122,1111122' 
LUMCON,ioos:station:LUMCON:102:1,2019-01-02T18:30:00Z,29.1870,-90.6093,0.0,5.6,99.0,5.7,'1111122,1111122,1111122' 
LUMCON,ioos:station:LUMCON:102:1,2019-01-02T18:45:00Z,29.1870,-90.6093,0.0,5.2,94.0,5.3,'1111122,1111122,1111122' 
LUMCON,ioos:station:LUMCON:102:1,2019-01-02T19:00:00Z,29.1870,-90.6093,0.0,5.4,94.0,5.6,'1111122,1111122,1111122' 
LUMCON,ioos:station:LUMCON:102:1,2019-01-02T19:15:00Z,29.1870,-90.6093,0.0,5.5,99.0,5.7,'1111122,1111122,1111122' 
LUMCON,ioos:station:LUMCON:102:1,2019-01-02T19:30:00Z,29.1870,-90.6093,0.0,4.3,104.0,4.5,'1111122,1111122,1111122' 
LUMCON,ioos:station:LUMCON:102:1,2019-01-02T19:45:00Z,29.1870,-90.6093,0.0,4.9,102.0,5.0,'1111122,1111122,1111122' 
LUMCON,ioos:station:LUMCON:102:1,2019-01-02T20:00:00Z,29.1870,-90.6093,0.0,4.5,101.0,4.6,'1111122,1111122,1111122' 
LUMCON,ioos:station:LUMCON:102:1,2019-01-02T20:15:00Z,29.1870,-90.6093,0.0,3.8,95.0,4.0,'1111122,1111122,1111122' 
LUMCON,ioos:station:LUMCON:102:1,2019-01-02T20:30:00Z,29.1870,-90.6093,0.0,3.4,110.0,3.4,'1111122,1111122,1111122' 
LUMCON,ioos:station:LUMCON:102:1,2019-01-02T20:45:00Z,29.1870,-90.6093,0.0,3.4,108.0,3.6,'1111122,1111122,1111122' 
LUMCON,ioos:station:LUMCON:102:1,2019-01-02T21:00:00Z,29.1870,-90.6093,0.0,4.0,109.0,4.2,'1111122,1111122,1111122' 
LUMCON,ioos:station:LUMCON:102:1,2019-01-02T21:15:00Z,29.1870,-90.6093,0.0,4.7,112.0,4.8,'1111122,1111122,1111122' 
LUMCON,ioos:station:LUMCON:102:1,2019-01-02T21:30:00Z,29.1870,-90.6093,0.0,4.3,109.0,4.5,'1111122,1111122,1111122' 
LUMCON,ioos:station:LUMCON:102:1,2019-01-02T21:45:00Z,29.1870,-90.6093,0.0,4.3,110.0,4.4,'1111122,1111122,1111122' 
LUMCON,ioos:station:LUMCON:102:1,2019-01-02T22:00:00Z,29.1870,-90.6093,0.0,4.2,114.0,4.5,'1111122,1111122,1111122' 
LUMCON,ioos:station:LUMCON:102:1,2019-01-02T22:15:00Z,29.1870,-90.6093,0.0,4.3,113.0,4.8,'1111122,1111122,1111122' 
LUMCON,ioos:station:LUMCON:102:1,2019-01-02T22:30:00Z,29.1870,-90.6093,0.0,4.0,111.0,4.3,'1111122,1111122,1111122' 
LUMCON,ioos:station:LUMCON:102:1,2019-01-02T22:45:00Z,29.1870,-90.6093,0.0,4.3,114.0,4.8,'1111122,1111122,1111122' 
LUMCON,ioos:station:LUMCON:102:1,2019-01-02T23:00:00Z,29.1870,-90.6093,0.0,6.2,122.0,6.5,'1111122,1111122,1111122' 
LUMCON,ioos:station:LUMCON:102:1,2019-01-02T23:15:00Z,29.1870,-90.6093,0.0,5.1,120.0,5.5,'1111122,1111122,1111122' 
LUMCON,ioos:station:LUMCON:102:1,2019-01-02T23:30:00Z,29.1870,-90.6093,0.0,6.1,118.0,6.4,'1111122,1111122,1111122' 
LUMCON,ioos:station:LUMCON:102:1,2019-01-02T23:45:00Z,29.1870,-90.6093,0.0,6.8,123.0,7.2,'1111122,1111122,1111122' 
LUMCON,ioos:station:LUMCON:102:1,2019-01-03T00:00:00Z,29.1870,-90.6093,0.0,5.1,116.0,5.1,'1111122,1111122,1111122' 
LUMCON,ioos:station:LUMCON:102:1,2019-01-03T00:15:00Z,29.1870,-90.6093,0.0,5.2,121.0,5.7,'1111122,1111122,1111122' 
LUMCON,ioos:station:LUMCON:102:1,2019-01-03T00:30:00Z,29.1870,-90.6093,0.0,4.0,114.0,4.2,'1111122,1111122,1111122' 
LUMCON,ioos:station:LUMCON:102:1,2019-01-03T00:45:00Z,29.1870,-90.6093,0.0,3.8,121.0,4.2,'1111122,1111122,1111122' 
LUMCON,ioos:station:LUMCON:102:1,2019-01-03T01:00:00Z,29.1870,-90.6093,0.0,3.4,127.0,3.6,'1111122,1111122,1111122' 
LUMCON,ioos:station:LUMCON:102:1,2019-01-03T01:15:00Z,29.1870,-90.6093,0.0,2.2,135.0,2.3,'1111122,1111122,1111122' 
LUMCON,ioos:station:LUMCON:102:1,2019-01-03T01:30:00Z,29.1870,-90.6093,0.0,1.5,156.0,1.5,'1111122,1111122,1111122' 
LUMCON,ioos:station:LUMCON:102:1,2019-01-03T01:45:00Z,29.1870,-90.6093,0.0,1.4,162.0,1.7,'1111122,1111122,1111122' 
LUMCON,ioos:station:LUMCON:102:1,2019-01-03T02:00:00Z,29.1870,-90.6093,0.0,1.7,182.0,1.9,'1111122,1111122,1111122' 
LUMCON,ioos:station:LUMCON:102:1,2019-01-03T02:15:00Z,29.1870,-90.6093,0.0,1.9,170.0,2.0,'1111122,1111122,1111122' 
LUMCON,ioos:station:LUMCON:102:1,2019-01-03T02:30:00Z,29.1870,-90.6093,0.0,2.4,163.0,2.6,'1111122,1111122,1111122' 
LUMCON,ioos:station:LUMCON:102:1,2019-01-03T02:45:00Z,29.1870,-90.6093,0.0,2.4,156.0,2.5,'1111122,1111122,1111122' 
LUMCON,ioos:station:LUMCON:102:1,2019-01-03T03:00:00Z,29.1870,-90.6093,0.0,2.4,154.0,2.4,'1111122,1111122,1111122' 
LUMCON,ioos:station:LUMCON:102:1,2019-01-03T03:15:00Z,29.1870,-90.6093,0.0,3.1,160.0,3.2,'1111122,1111122,1111122' 
LUMCON,ioos:station:LUMCON:102:1,2019-01-03T03:30:00Z,29.1870,-90.6093,0.0,3.4,156.0,3.5,'1111122,1111122,1111122' 
LUMCON,ioos:station:LUMCON:102:1,2019-01-03T03:45:00Z,29.1870,-90.6093,0.0,4.1,152.0,4.3,'1111122,1111122,1111122' 
LUMCON,ioos:station:LUMCON:102:1,2019-01-03T04:00:00Z,29.1870,-90.6093,0.0,3.4,159.0,3.8,'1111122,1111122,1111122' 
LUMCON,ioos:station:LUMCON:102:1,2019-01-03T04:15:00Z,29.1870,-90.6093,0.0,2.8,153.0,3.0,'1111122,1111122,1111122' 
LUMCON,ioos:station:LUMCON:102:1,2019-01-03T04:30:00Z,29.1870,-90.6093,0.0,3.3,150.0,3.5,'1111122,1111122,1111122' 
LUMCON,ioos:station:LUMCON:102:1,2019-01-03T04:45:00Z,29.1870,-90.6093,0.0,3.4,155.0,3.5,'1111122,1111122,1111122' 
LUMCON,ioos:station:LUMCON:102:1,2019-01-03T05:00:00Z,29.1870,-90.6093,0.0,2.4,160.0,2.6,'1111122,1111122,1111122' 
LUMCON,ioos:station:LUMCON:102:1,2019-01-03T05:15:00Z,29.1870,-90.6093,0.0,2.4,149.0,2.5,'1111122,1111122,1111122' 
LUMCON,ioos:station:LUMCON:102:1,2019-01-03T05:30:00Z,29.1870,-90.6093,0.0,3.0,139.0,3.1,'1111122,1111122,1111122' 
LUMCON,ioos:station:LUMCON:102:1,2019-01-03T05:45:00Z,29.1870,-90.6093,0.0,3.0,134.0,3.2,'1111122,1111122,1111122' 
LUMCON,ioos:station:LUMCON:102:1,2019-01-03T06:00:00Z,29.1870,-90.6093,0.0,2.9,149.0,3.1,'1111122,1111122,1111122' 
LUMCON,ioos:station:LUMCON:102:1,2019-01-03T06:15:00Z,29.1870,-90.6093,0.0,2.6,148.0,2.7,'1111122,1111122,1111122' 
LUMCON,ioos:station:LUMCON:102:1,2019-01-03T06:30:00Z,29.1870,-90.6093,0.0,1.8,152.0,1.9,'1111122,1111122,1111122' 
LUMCON,ioos:station:LUMCON:102:1,2019-01-03T06:45:00Z,29.1870,-90.6093,0.0,1.8,155.0,1.9,'1111122,1111122,1111122' 
LUMCON,ioos:station:LUMCON:102:1,2019-01-03T07:00:00Z,29.1870,-90.6093,0.0,2.4,159.0,2.5,'1111122,1111122,1111122' 
LUMCON,ioos:station:LUMCON:102:1,2019-01-03T07:15:00Z,29.1870,-90.6093,0.0,2.5,162.0,2.6,'1111122,1111122,1111122' 
LUMCON,ioos:station:LUMCON:102:1,2019-01-03T07:30:00Z,29.1870,-90.6093,0.0,4.1,153.0,4.2,'1111122,1111122,1111122' 
LUMCON,ioos:station:LUMCON:102:1,2019-01-03T07:45:00Z,29.1870,-90.6093,0.0,4.1,141.0,4.2,'1111122,1111122,1111122' 
LUMCON,ioos:station:LUMCON:102:1,2019-01-03T08:00:00Z,29.1870,-90.6093,0.0,3.7,153.0,4.0,'1111122,1111122,1111122' 
LUMCON,ioos:station:LUMCON:102:1,2019-01-03T08:15:00Z,29.1870,-90.6093,0.0,4.3,167.0,4.5,'1111122,1111122,1111122' 
LUMCON,ioos:station:LUMCON:102:1,2019-01-03T08:30:00Z,29.1870,-90.6093,0.0,3.6,188.0,4.0,'1111122,1111122,1111122' 
LUMCON,ioos:station:LUMCON:102:1,2019-01-03T08:45:00Z,29.1870,-90.6093,0.0,5.7,330.0,5.7,'1111122,1111122,1111122' 
LUMCON,ioos:station:LUMCON:102:1,2019-01-03T09:00:00Z,29.1870,-90.6093,0.0,6.7,341.0,6.8,'1111122,1111122,1111122' 
LUMCON,ioos:station:LUMCON:102:1,2019-01-03T09:15:00Z,29.1870,-90.6093,0.0,8.9,336.0,9.2,'1111122,1111122,1111122' 
LUMCON,ioos:station:LUMCON:102:1,2019-01-03T09:30:00Z,29.1870,-90.6093,0.0,8.1,339.0,8.3,'1111122,1111122,1111122' 
LUMCON,ioos:station:LUMCON:102:1,2019-01-03T09:45:00Z,29.1870,-90.6093,0.0,8.0,350.0,8.1,'1111122,1111122,1111122' 
LUMCON,ioos:station:LUMCON:102:1,2019-01-03T10:00:00Z,29.1870,-90.6093,0.0,9.3,347.0,9.6,'1111122,1111122,1111122' 
LUMCON,ioos:station:LUMCON:102:1,2019-01-03T10:15:00Z,29.1870,-90.6093,0.0,9.2,355.0,9.3,'1111122,1111122,1111122' 
LUMCON,ioos:station:LUMCON:102:1,2019-01-03T10:30:00Z,29.1870,-90.6093,0.0,9.0,352.0,9.3,'1111122,1111122,1111122' 
LUMCON,ioos:station:LUMCON:102:1,2019-01-03T10:45:00Z,29.1870,-90.6093,0.0,7.6,4.0,8.3,'1111122,1111122,1111122' 
LUMCON,ioos:station:LUMCON:102:1,2019-01-03T11:00:00Z,29.1870,-90.6093,0.0,8.7,9.0,8.9,'1111122,1111122,1111122' 
LUMCON,ioos:station:LUMCON:102:1,2019-01-03T11:15:00Z,29.1870,-90.6093,0.0,8.1,9.0,8.4,'1111122,1111122,1111122' 
LUMCON,ioos:station:LUMCON:102:1,2019-01-03T11:30:00Z,29.1870,-90.6093,0.0,8.2,11.0,8.3,'1111122,1111122,1111122' 
LUMCON,ioos:station:LUMCON:102:1,2019-01-03T11:45:00Z,29.1870,-90.6093,0.0,8.2,21.0,8.3,'1111122,1111122,1111122' 
LUMCON,ioos:station:LUMCON:102:1,2019-01-03T12:00:00Z,29.1870,-90.6093,0.0,8.1,26.0,8.2,'1111122,1111122,1111122' 
LUMCON,ioos:station:LUMCON:102:1,2019-01-03T12:15:00Z,29.1870,-90.6093,0.0,9.1,21.0,9.3,'1111122,1111122,1111122' 
LUMCON,ioos:station:LUMCON:102:1,2019-01-03T12:30:00Z,29.1870,-90.6093,0.0,8.5,26.0,8.8,'1111122,1111122,1111122' 
LUMCON,ioos:station:LUMCON:102:1,2019-01-03T12:45:00Z,29.1870,-90.6093,0.0,9.1,24.0,9.4,'1111122,1111122,1111122' 
LUMCON,ioos:station:LUMCON:102:1,2019-01-03T13:00:00Z,29.1870,-90.6093,0.0,9.7,29.0,10.1,'1111122,1111122,1111122' 
LUMCON,ioos:station:LUMCON:102:1,2019-01-03T13:15:00Z,29.1870,-90.6093,0.0,10.0,21.0,10.1,'1111122,1111122,1111122' 
LUMCON,ioos:station:LUMCON:102:1,2019-01-03T13:30:00Z,29.1870,-90.6093,0.0,10.7,32.0,10.8,'1111122,1111122,1111122' 
LUMCON,ioos:station:LUMCON:102:1,2019-01-03T13:45:00Z,29.1870,-90.6093,0.0,8.8,30.0,9.1,'1111122,1111122,1111122' 
LUMCON,ioos:station:LUMCON:102:1,2019-01-03T14:00:00Z,29.1870,-90.6093,0.0,9.0,40.0,9.5,'1111122,1111122,1111122' 
LUMCON,ioos:station:LUMCON:102:1,2019-01-03T14:15:00Z,29.1870,-90.6093,0.0,8.1,38.0,8.3,'1111122,1111122,1111122' 
LUMCON,ioos:station:LUMCON:102:1,2019-01-03T14:30:00Z,29.1870,-90.6093,0.0,7.8,44.0,7.9,'1111122,1111122,1111122' 
LUMCON,ioos:station:LUMCON:102:1,2019-01-03T14:45:00Z,29.1870,-90.6093,0.0,8.0,50.0,9.1,'1111122,1111122,1111122' 
LUMCON,ioos:station:LUMCON:102:1,2019-01-03T15:00:00Z,29.1870,-90.6093,0.0,8.1,46.0,8.5,'1111122,1111122,1111122' 
LUMCON,ioos:station:LUMCON:102:1,2019-01-03T15:15:00Z,29.1870,-90.6093,0.0,6.9,50.0,7.2,'1111122,1111122,1111122' 
LUMCON,ioos:station:LUMCON:102:1,2019-01-03T15:30:00Z,29.1870,-90.6093,0.0,8.0,52.0,8.2,'1111122,1111122,1111122' 
LUMCON,ioos:station:LUMCON:102:1,2019-01-03T15:45:00Z,29.1870,-90.6093,0.0,8.3,51.0,8.6,'1111122,1111122,1111122' 
LUMCON,ioos:station:LUMCON:102:1,2019-01-03T16:00:00Z,29.1870,-90.6093,0.0,9.1,57.0,9.2,'1111122,1111122,1111122' 
LUMCON,ioos:station:LUMCON:102:1,2019-01-03T16:15:00Z,29.1870,-90.6093,0.0,8.7,62.0,9.2,'1111122,1111122,1111122' 
LUMCON,ioos:station:LUMCON:102:1,2019-01-03T16:30:00Z,29.1870,-90.6093,0.0,9.9,61.0,10.1,'1111122,1111122,1111122' 
LUMCON,ioos:station:LUMCON:102:1,2019-01-03T16:45:00Z,29.1870,-90.6093,0.0,8.2,61.0,8.8,'1111122,1111122,1111122' 
LUMCON,ioos:station:LUMCON:102:1,2019-01-03T17:00:00Z,29.1870,-90.6093,0.0,9.7,71.0,10.3,'1111122,1111122,1111122' 
LUMCON,ioos:station:LUMCON:102:1,2019-01-03T17:15:00Z,29.1870,-90.6093,0.0,8.9,74.0,9.3,'1111122,1111122,1111122' 
LUMCON,ioos:station:LUMCON:102:1,2019-01-03T17:30:00Z,29.1870,-90.6093,0.0,8.3,66.0,8.8,'1111122,1111122,1111122' 
LUMCON,ioos:station:LUMCON:102:1,2019-01-03T17:45:00Z,29.1870,-90.6093,0.0,6.8,72.0,7.3,'1111122,1111122,1111122' 
LUMCON,ioos:station:LUMCON:102:1,2019-01-03T18:00:00Z,29.1870,-90.6093,0.0,7.8,76.0,8.6,'1111122,1111122,1111122' 
LUMCON,ioos:station:LUMCON:102:1,2019-01-03T18:15:00Z,29.1870,-90.6093,0.0,8.7,73.0,9.0,'1111122,1111122,1111122' 
LUMCON,ioos:station:LUMCON:102:1,2019-01-03T18:30:00Z,29.1870,-90.6093,0.0,8.4,83.0,8.8,'1111122,1111122,1111122' 
LUMCON,ioos:station:LUMCON:102:1,2019-01-03T18:45:00Z,29.1870,-90.6093,0.0,8.3,83.0,9.0,'1111122,1111122,1111122' 
LUMCON,ioos:station:LUMCON:102:1,2019-01-03T19:00:00Z,29.1870,-90.6093,0.0,8.0,88.0,8.4,'1111122,1111122,1111122' 
LUMCON,ioos:station:LUMCON:102:1,2019-01-03T19:15:00Z,29.1870,-90.6093,0.0,8.3,90.0,8.6,'1111122,1111122,1111122' 
LUMCON,ioos:station:LUMCON:102:1,2019-01-03T19:30:00Z,29.1870,-90.6093,0.0,8.6,91.0,8.8,'1111122,1111122,1111122' 
LUMCON,ioos:station:LUMCON:102:1,2019-01-03T19:45:00Z,29.1870,-90.6093,0.0,10.1,82.0,11.0,'1111122,1111122,1111122' 
LUMCON,ioos:station:LUMCON:102:1,2019-01-03T20:00:00Z,29.1870,-90.6093,0.0,10.0,97.0,10.1,'1111122,1111122,1111122' 
LUMCON,ioos:station:LUMCON:102:1,2019-01-03T20:15:00Z,29.1870,-90.6093,0.0,10.2,91.0,10.4,'1111122,1111122,1111122' 
LUMCON,ioos:station:LUMCON:102:1,2019-01-03T20:30:00Z,29.1870,-90.6093,0.0,12.3,95.0,12.5,'1111122,1111122,1111122' 
LUMCON,ioos:station:LUMCON:102:1,2019-01-03T20:45:00Z,29.1870,-90.6093,0.0,9.9,98.0,10.1,'1111122,1111122,1111122' 
LUMCON,ioos:station:LUMCON:102:1,2019-01-03T21:00:00Z,29.1870,-90.6093,0.0,8.5,100.0,8.9,'1111122,1111122,1111122' 
LUMCON,ioos:station:LUMCON:102:1,2019-01-03T21:15:00Z,29.1870,-90.6093,0.0,10.3,104.0,10.9,'1111122,1111122,1111122' 
LUMCON,ioos:station:LUMCON:102:1,2019-01-03T21:30:00Z,29.1870,-90.6093,0.0,8.7,102.0,9.3,'1111122,1111122,1111122' 
LUMCON,ioos:station:LUMCON:102:1,2019-01-03T21:45:00Z,29.1870,-90.6093,0.0,10.1,105.0,10.2,'1111122,1111122,1111122' 
LUMCON,ioos:station:LUMCON:102:1,2019-01-03T22:00:00Z,29.1870,-90.6093,0.0,10.0,107.0,10.5,'1111122,1111122,1111122' 
LUMCON,ioos:station:LUMCON:102:1,2019-01-03T22:15:00Z,29.1870,-90.6093,0.0,7.8,104.0,8.5,'1111122,1111122,1111122' 
LUMCON,ioos:station:LUMCON:102:1,2019-01-03T22:30:00Z,29.1870,-90.6093,0.0,8.5,109.0,8.8,'1111122,1111122,1111122' 
LUMCON,ioos:station:LUMCON:102:1,2019-01-03T22:45:00Z,29.1870,-90.6093,0.0,6.9,109.0,7.2,'1111122,1111122,1111122' 
LUMCON,ioos:station:LUMCON:102:1,2019-01-03T23:00:00Z,29.1870,-90.6093,0.0,8.0,118.0,8.4,'1111122,1111122,1111122' 
LUMCON,ioos:station:LUMCON:102:1,2019-01-03T23:15:00Z,29.1870,-90.6093,0.0,8.5,123.0,8.9,'1111122,1111122,1111122' 
LUMCON,ioos:station:LUMCON:102:1,2019-01-03T23:30:00Z,29.1870,-90.6093,0.0,8.1,127.0,8.5,'1111122,1111122,1111122' 
LUMCON,ioos:station:LUMCON:102:1,2019-01-03T23:45:00Z,29.1870,-90.6093,0.0,8.5,133.0,8.8,'1111122,1111122,1111122' 
LUMCON,ioos:station:LUMCON:102:1,2019-01-04T00:00:00Z,29.1870,-90.6093,0.0,12.1,168.0,13.2,'1111122,1111122,1111122' 
LUMCON,ioos:station:LUMCON:102:1,2019-01-04T00:15:00Z,29.1870,-90.6093,0.0,10.2,184.0,10.9,'1111122,1111122,1111122' 
LUMCON,ioos:station:LUMCON:102:1,2019-01-04T00:30:00Z,29.1870,-90.6093,0.0,16.6,207.0,17.8,'1111122,1111122,1111122' 
LUMCON,ioos:station:LUMCON:102:1,2019-01-04T00:45:00Z,29.1870,-90.6093,0.0,10.7,248.0,11.2,'1111122,1111122,1111122' 
LUMCON,ioos:station:LUMCON:102:1,2019-01-04T01:00:00Z,29.1870,-90.6093,0.0,11.8,253.0,12.4,'1111122,1111122,1111122' 
LUMCON,ioos:station:LUMCON:102:1,2019-01-04T01:15:00Z,29.1870,-90.6093,0.0,11.8,248.0,12.1,'1111122,1111122,1111122' 
LUMCON,ioos:station:LUMCON:102:1,2019-01-04T01:30:00Z,29.1870,-90.6093,0.0,9.4,253.0,9.6,'1111122,1111122,1111122' 
LUMCON,ioos:station:LUMCON:102:1,2019-01-04T01:45:00Z,29.1870,-90.6093,0.0,8.6,250.0,8.9,'1111122,1111122,1111122' 
LUMCON,ioos:station:LUMCON:102:1,2019-01-04T02:00:00Z,29.1870,-90.6093,0.0,11.3,255.0,11.8,'1111122,1111122,1111122' 
LUMCON,ioos:station:LUMCON:102:1,2019-01-04T02:15:00Z,29.1870,-90.6093,0.0,12.8,252.0,13.2,'1111122,1111122,1111122' 
LUMCON,ioos:station:LUMCON:102:1,2019-01-04T02:30:00Z,29.1870,-90.6093,0.0,12.3,255.0,13.3,'1111122,1111122,1111122' 
LUMCON,ioos:station:LUMCON:102:1,2019-01-04T02:45:00Z,29.1870,-90.6093,0.0,12.5,257.0,13.1,'1111122,1111122,1111122' 
LUMCON,ioos:station:LUMCON:102:1,2019-01-04T03:00:00Z,29.1870,-90.6093,0.0,12.3,256.0,12.8,'1111122,1111122,1111122' 
LUMCON,ioos:station:LUMCON:102:1,2019-01-04T03:15:00Z,29.1870,-90.6093,0.0,11.8,255.0,12.1,'1111122,1111122,1111122' 
LUMCON,ioos:station:LUMCON:102:1,2019-01-04T03:30:00Z,29.1870,-90.6093,0.0,11.7,250.0,12.3,'1111122,1111122,1111122' 
LUMCON,ioos:station:LUMCON:102:1,2019-01-04T03:45:00Z,29.1870,-90.6093,0.0,12.6,250.0,13.1,'1111122,1111122,1111122' 
LUMCON,ioos:station:LUMCON:102:1,2019-01-04T04:00:00Z,29.1870,-90.6093,0.0,10.3,252.0,10.6,'1111122,1111122,1111122' 
LUMCON,ioos:station:LUMCON:102:1,2019-01-04T04:15:00Z,29.1870,-90.6093,0.0,10.9,254.0,11.3,'1111122,1111122,1111122' 
LUMCON,ioos:station:LUMCON:102:1,2019-01-04T04:30:00Z,29.1870,-90.6093,0.0,14.7,255.0,15.6,'1111122,1111122,1111122' 
LUMCON,ioos:station:LUMCON:102:1,2019-01-04T04:45:00Z,29.1870,-90.6093,0.0,12.7,250.0,13.0,'1111122,1111122,1111122' 
LUMCON,ioos:station:LUMCON:102:1,2019-01-04T05:00:00Z,29.1870,-90.6093,0.0,10.6,251.0,11.0,'1111122,1111122,1111122' 
LUMCON,ioos:station:LUMCON:102:1,2019-01-04T05:15:00Z,29.1870,-90.6093,0.0,12.4,259.0,13.2,'1111122,1111122,1111122' 
LUMCON,ioos:station:LUMCON:102:1,2019-01-04T05:30:00Z,29.1870,-90.6093,0.0,13.2,261.0,14.2,'1111122,1111122,1111122' 
LUMCON,ioos:station:LUMCON:102:1,2019-01-04T05:45:00Z,29.1870,-90.6093,0.0,13.4,265.0,14.1,'1111122,1111122,1111122' 
LUMCON,ioos:station:LUMCON:102:1,2019-01-04T06:00:00Z,29.1870,-90.6093,0.0,11.9,275.0,12.9,'1111122,1111122,1111122' 
LUMCON,ioos:station:LUMCON:102:1,2019-01-04T06:15:00Z,29.1870,-90.6093,0.0,15.2,268.0,15.5,'1111122,1111122,1111122' 
LUMCON,ioos:station:LUMCON:102:1,2019-01-04T06:30:00Z,29.1870,-90.6093,0.0,11.0,267.0,11.4,'1111122,1111122,1111122' 
LUMCON,ioos:station:LUMCON:102:1,2019-01-04T06:45:00Z,29.1870,-90.6093,0.0,11.0,264.0,11.7,'1111122,1111122,1111122' 
LUMCON,ioos:station:LUMCON:102:1,2019-01-04T07:00:00Z,29.1870,-90.6093,0.0,11.5,263.0,11.7,'1111122,1111122,1111122' 
LUMCON,ioos:station:LUMCON:102:1,2019-01-04T07:15:00Z,29.1870,-90.6093,0.0,11.1,260.0,12.8,'1111122,1111122,1111122' 
LUMCON,ioos:station:LUMCON:102:1,2019-01-04T07:30:00Z,29.1870,-90.6093,0.0,10.1,271.0,10.6,'1111122,1111122,1111122' 
LUMCON,ioos:station:LUMCON:102:1,2019-01-04T07:45:00Z,29.1870,-90.6093,0.0,10.2,269.0,10.7,'1111122,1111122,1111122' 
LUMCON,ioos:station:LUMCON:102:1,2019-01-04T08:00:00Z,29.1870,-90.6093,0.0,11.6,263.0,12.1,'1111122,1111122,1111122' 
LUMCON,ioos:station:LUMCON:102:1,2019-01-04T08:15:00Z,29.1870,-90.6093,0.0,11.8,258.0,12.3,'1111122,1111122,1111122' 
LUMCON,ioos:station:LUMCON:102:1,2019-01-04T08:30:00Z,29.1870,-90.6093,0.0,12.3,252.0,12.5,'1111122,1111122,1111122' 
LUMCON,ioos:station:LUMCON:102:1,2019-01-04T08:45:00Z,29.1870,-90.6093,0.0,14.0,254.0,14.3,'1111122,1111122,1111122' 
LUMCON,ioos:station:LUMCON:102:1,2019-01-04T09:00:00Z,29.1870,-90.6093,0.0,13.5,263.0,13.8,'1111122,1111122,1111122' 
LUMCON,ioos:station:LUMCON:102:1,2019-01-04T09:15:00Z,29.1870,-90.6093,0.0,13.5,263.0,15.3,'1111122,1111122,1111122' 
LUMCON,ioos:station:LUMCON:102:1,2019-01-04T09:30:00Z,29.1870,-90.6093,0.0,12.0,262.0,13.2,'1111122,1111122,1111122' 
LUMCON,ioos:station:LUMCON:102:1,2019-01-04T09:45:00Z,29.1870,-90.6093,0.0,12.7,265.0,13.2,'1111122,1111122,1111122' 
LUMCON,ioos:station:LUMCON:102:1,2019-01-04T10:00:00Z,29.1870,-90.6093,0.0,14.3,261.0,14.8,'1111122,1111122,1111122' 
LUMCON,ioos:station:LUMCON:102:1,2019-01-04T10:15:00Z,29.1870,-90.6093,0.0,11.0,253.0,11.9,'1111122,1111122,1111122' 
LUMCON,ioos:station:LUMCON:102:1,2019-01-04T10:30:00Z,29.1870,-90.6093,0.0,11.3,269.0,11.5,'1111122,1111122,1111122' 
LUMCON,ioos:station:LUMCON:102:1,2019-01-04T10:45:00Z,29.1870,-90.6093,0.0,13.0,265.0,13.6,'1111122,1111122,1111122' 
LUMCON,ioos:station:LUMCON:102:1,2019-01-04T11:00:00Z,29.1870,-90.6093,0.0,11.2,273.0,11.7,'1111122,1111122,1111122' 
LUMCON,ioos:station:LUMCON:102:1,2019-01-04T11:15:00Z,29.1870,-90.6093,0.0,10.9,272.0,11.1,'1111122,1111122,1111122' 
LUMCON,ioos:station:LUMCON:102:1,2019-01-04T11:30:00Z,29.1870,-90.6093,0.0,10.5,273.0,11.0,'1111122,1111122,1111122' 
LUMCON,ioos:station:LUMCON:102:1,2019-01-04T11:45:00Z,29.1870,-90.6093,0.0,11.2,261.0,11.7,'1111122,1111122,1111122' 
LUMCON,ioos:station:LUMCON:102:1,2019-01-04T12:00:00Z,29.1870,-90.6093,0.0,10.8,268.0,11.4,'1111122,1111122,1111122' 
LUMCON,ioos:station:LUMCON:102:1,2019-01-04T12:15:00Z,29.1870,-90.6093,0.0,9.5,264.0,10.2,'1111122,1111122,1111122' 
LUMCON,ioos:station:LUMCON:102:1,2019-01-04T12:30:00Z,29.1870,-90.6093,0.0,13.5,269.0,14.2,'1111122,1111122,1111122' 
LUMCON,ioos:station:LUMCON:102:1,2019-01-04T12:45:00Z,29.1870,-90.6093,0.0,14.0,271.0,14.4,'1111122,1111122,1111122' 
LUMCON,ioos:station:LUMCON:102:1,2019-01-04T13:00:00Z,29.1870,-90.6093,0.0,14.1,269.0,16.1,'1111122,1111122,1111122' 
LUMCON,ioos:station:LUMCON:102:1,2019-01-04T13:15:00Z,29.1870,-90.6093,0.0,13.6,269.0,14.0,'1111122,1111122,1111122' 
LUMCON,ioos:station:LUMCON:102:1,2019-01-04T13:30:00Z,29.1870,-90.6093,0.0,14.0,271.0,14.3,'1111122,1111122,1111122' 
LUMCON,ioos:station:LUMCON:102:1,2019-01-04T13:45:00Z,29.1870,-90.6093,0.0,10.3,270.0,10.9,'1111122,1111122,1111122' 
LUMCON,ioos:station:LUMCON:102:1,2019-01-04T14:00:00Z,29.1870,-90.6093,0.0,11.4,270.0,12.2,'1111122,1111122,1111122' 
LUMCON,ioos:station:LUMCON:102:1,2019-01-04T14:15:00Z,29.1870,-90.6093,0.0,10.6,274.0,11.3,'1111122,1111122,1111122' 
LUMCON,ioos:station:LUMCON:102:1,2019-01-04T14:30:00Z,29.1870,-90.6093,0.0,11.0,266.0,11.5,'1111122,1111122,1111122' 
LUMCON,ioos:station:LUMCON:102:1,2019-01-04T14:45:00Z,29.1870,-90.6093,0.0,11.1,269.0,11.9,'1111122,1111122,1111122' 
LUMCON,ioos:station:LUMCON:102:1,2019-01-04T15:00:00Z,29.1870,-90.6093,0.0,9.6,271.0,9.8,'1111122,1111122,1111122' 
LUMCON,ioos:station:LUMCON:102:1,2019-01-04T15:15:00Z,29.1870,-90.6093,0.0,10.2,268.0,10.6,'1111122,1111122,1111122' 
LUMCON,ioos:station:LUMCON:102:1,2019-01-04T15:30:00Z,29.1870,-90.6093,0.0,13.4,261.0,13.9,'1111122,1111122,1111122' 
LUMCON,ioos:station:LUMCON:102:1,2019-01-04T15:45:00Z,29.1870,-90.6093,0.0,11.4,262.0,12.1,'1111122,1111122,1111122' 
LUMCON,ioos:station:LUMCON:102:1,2019-01-04T16:00:00Z,29.1870,-90.6093,0.0,12.9,262.0,13.0,'1111122,1111122,1111122' 
LUMCON,ioos:station:LUMCON:102:1,2019-01-04T16:15:00Z,29.1870,-90.6093,0.0,13.7,259.0,14.0,'1111122,1111122,1111122' 
LUMCON,ioos:station:LUMCON:102:1,2019-01-04T16:30:00Z,29.1870,-90.6093,0.0,14.6,265.0,15.4,'1111122,1111122,1111122' 